Terminal Aerodrome Forecast
Issued by NWS Sterling, VA

Current Version | Previous Version | Graphics & Text | Print | Product List | Glossary On
Versions: 1 2 3 4 5 6 7 8 9 10 11 12 13 14 15 16 17 18 19 20 21
105
FTUS41 KLWX 232036 AAA
TAFDCA
TAF AMD
KDCA 232036Z 2321/2418 35004KT P6SM FEW050 FEW250
     FM241600 05007KT P6SM SCT250=

USA.gov is the U.S. government's official web portal to all federal, state and local government web resources and services.